This is the latest recevied weather packets stored in our database for station/object IW2NIA-3. If no packets are shown the sender has not sent any weather packets the latest 10 day(s).
| Time | Temp. | Humidity | Pressure | Rain* | Wind** | Luminosity | Snow |
|---|---|---|---|---|---|---|---|
| 1788383022 | 22.78° C | 75% | 1017.3 hPa | 0 mm | - | - | - |
| 1788382112 | 22.78° C | 76% | 1017.3 hPa | 0 mm | - | - | - |
| 1788381210 | 22.78° C | 77% | 1017.2 hPa | 0 mm | - | - | - |
| 1788380328 | 22.78° C | 78% | 1017.2 hPa | 0 mm | - | - | - |
| 1788379424 | 23.33° C | 77% | 1017.1 hPa | 0 mm | - | - | - |
| 1788378521 | 23.33° C | 76% | 1017 hPa | 0 mm | - | - | - |
| 1788377611 | 23.89° C | 75% | 1017 hPa | 0 mm | - | - | - |
| 1788376724 | 24.44° C | 72% | 1016.9 hPa | 0 mm | - | - | - |
| 1788375822 | 25° C | 70% | 1016.7 hPa | 0 mm | - | - | - |
| 1788374918 | 25.56° C | 69% | 1016.6 hPa | 0 mm | - | - | - |
| 1788374017 | 26.11° C | 66% | 1016.5 hPa | 0 mm | - | - | - |
| 1788373112 | 26.11° C | 64% | 1016.4 hPa | 0 mm | - | - | - |
| 1788372211 | 26.67° C | 63% | 1016.3 hPa | 0 mm | - | - | - |
| 1788371328 | 27.78° C | 59% | 1016.1 hPa | 0 mm | - | - | - |
| 1788370411 | 27.78° C | 58% | 1016.1 hPa | 0 mm | - | - | - |
| 1788369528 | 28.33° C | 57% | 1016 hPa | 0 mm | - | - | - |
| 1788368618 | 28.89° C | 54% | 1016 hPa | 0 mm | - | - | - |
| 1788367715 | 29.44° C | 52% | 1016.1 hPa | 0 mm | - | - | - |
| 1788366820 | 30° C | 50% | 1016 hPa | 0 mm | - | - | - |
| 1788365916 | 30.56° C | 50% | 1016.1 hPa | 0 mm | - | - | - |
| 1788365011 | 30° C | 51% | 1016.1 hPa | 0 mm | - | - | - |
| 1788364115 | 30° C | 51% | 1016.2 hPa | 0 mm | - | - | - |
| 1788363207 | 30° C | 52% | 1016.4 hPa | 0 mm | - | - | - |
| 1788362325 | 30° C | 48% | 1016.4 hPa | 0 mm | - | - | - |
| 1788361421 | 30° C | 48% | 1016.6 hPa | 0 mm | - | - | - |
* Rain latest hour (hover to see other rain measurements)
** Current wind speed in m/s (hover to see current wind gust speed)